GW1330 Weather Reports


time (UTC)temp
C
wind
direction
speed
KPH
gust
KPH
rain 1hr
cm
rain 24hr
cm
rain mn
cm
humidity
%
barometer
mb
20260505170134 26 48 3.2 4.8 0.00 0.00 0.00 40
20260505165629 26 39 1.6 4.8 0.00 0.00 0.00 41
20260505165126 26 39 3.2 8.0 0.00 0.00 0.00 40
20260505164621 26 59 3.2 8.0 0.00 0.00 0.00 40
20260505164119 27 67 1.6 8.0 0.00 0.00 0.00 39
20260505163617 26 55 1.6 9.7 0.00 0.00 0.00 39
20260505163114 26 55 3.2 11.3 0.00 0.00 0.00 39
20260505162612 26 329 6.4 9.7 0.00 0.00 0.00 38
20260505162109 26 56 1.6 8.0 0.00 0.00 0.00 41
20260505161606 26 57 3.2 11.3 0.00 0.00 0.00 40
20260505161103 26 11 3.2 11.3 0.00 0.00 0.00 40
20260505160601 26 23 4.8 4.8 0.00 0.00 0.00 41
20260505153038 26 56 1.6 9.7 0.00 0.00 0.00 46
20260505152535 26 60 1.6 3.2 0.00 0.00 0.00 46
20260505152030 26 64 0.0 3.2 0.00 0.00 0.00 50
20260505151525 26 49 3.2 3.2 0.00 0.00 0.00 45
20260505151023 26 56 0.0 3.2 0.00 0.00 0.00 51
20260505150519 25 50 1.6 3.2 0.00 0.00 0.00 49
20260505140444 23 63 0.0 3.2 0.00 0.00 0.00 56
20260505124857 20 67 1.6 1.6 0.00 0.00 0.00 62
20260505124355 20 64 0.0 0.0 0.00 0.00 0.00 63
20260505123850 18 64 0.0 3.2 0.00 0.00 0.00 65
20260505123347 18 72 1.6 1.6 0.00 0.00 0.00 64
20260505122843 18 60 0.0 4.8 0.00 0.00 0.00 66
20260505122341 18 55 3.2 3.2 0.00 0.00 0.00 66
20260505121837 17 124 4.8 8.0 0.00 0.00 0.00 65
20260505121334 18 96 3.2 3.2 0.00 0.00 0.00 64
20260505120830 18 84 1.6 3.2 0.00 0.00 0.00 66
20260505120327 18 82 0.0 1.6 0.00 0.00 0.00 66
20260505115826 17 81 0.0 1.6 0.00 0.00 0.00 68
20260505115323 18 82 0.0 0.0 0.00 0.00 0.00 67
20260505114821 17 80 0.0 1.6 0.00 0.00 0.00 67
20260505114317 17 79 0.0 0.0 0.00 0.00 0.00 69
20260505113813 16 78 0.0 0.0 0.00 0.00 0.00 71
20260505113310 17 78 0.0 0.0 0.00 0.00 0.00 69
20260505112805 18 79 0.0 0.0 0.00 0.00 0.00 65
20260505112305 17 79 0.0 0.0 0.00 0.00 0.00 66
20260505111759 17 79 0.0 1.6 0.00 0.00 0.00 69
20260505111254 16 94 3.2 4.8 0.00 0.00 0.00 69
20260505110750 16 84 0.0 1.6 0.00 0.00 0.00 70
20260505110248 15 79 0.0 0.0 0.00 0.00 0.00 72
20260505101722 12 75 0.0 0.0 0.00 0.00 0.00 82
20260505101218 12 75 0.0 0.0 0.00 0.00 0.00 81
20260505100715 13 75 0.0 0.0 0.00 0.00 0.00 81
20260505100212 13 75 0.0 0.0 0.00 0.00 0.00 80
20260505095707 13 75 0.0 0.0 0.00 0.00 0.00 79
20260505095205 13 76 0.0 0.0 0.00 0.00 0.00 79
20260505094701 13 76 0.0 0.0 0.00 0.00 0.00 79
20260505094157 13 77 1.6 1.6 0.00 0.00 0.00 79
20260505093653 13 63 0.0 0.0 0.00 0.00 0.00 81
20260505093151 13 62 0.0 0.0 0.00 0.00 0.00 81
20260505092648 13 62 0.0 0.0 0.00 0.00 0.00 80
20260505092147 13 61 0.0 0.0 0.00 0.00 0.00 80
20260505091643 13 61 0.0 0.0 0.00 0.00 0.00 81
20260505091141 13 61 0.0 0.0 0.00 0.00 0.00 80
20260505090638 13 61 0.0 0.0 0.00 0.00 0.00 79
20260505090137 13 61 0.0 0.0 0.00 0.00 0.00 78
20260505085634 14 61 0.0 0.0 0.00 0.00 0.00 77
20260505085132 14 61 0.0 1.6 0.00 0.00 0.00 76
20260505084629 15 61 0.0 0.0 0.00 0.00 0.00 74
20260505084128 15 60 0.0 0.0 0.00 0.00 0.00 73
20260505083625 15 91 1.6 3.2 0.00 0.00 0.00 72
20260505083121 15 84 1.6 3.2 0.00 0.00 0.00 73
20260505082617 14 80 0.0 0.0 0.00 0.00 0.00 75
20260505082114 14 82 0.0 0.0 0.00 0.00 0.00 74
20260505081610 15 82 0.0 0.0 0.00 0.00 0.00 73
20260505081108 15 82 0.0 0.0 0.00 0.00 0.00 73
20260505080604 14 82 0.0 0.0 0.00 0.00 0.00 73
20260505075556 14 77 0.0 0.0 0.00 0.00 0.00 75
20260505075053 14 77 0.0 0.0 0.00 0.00 0.00 75
20260505074550 15 77 0.0 0.0 0.00 0.00 0.00 74
20260505074047 15 77 0.0 0.0 0.00 0.00 0.00 73
20260505073545 15 77 0.0 0.0 0.00 0.00 0.00 73
20260505073044 15 76 0.0 0.0 0.00 0.00 0.00 72
20260505072538 15 75 0.0 0.0 0.00 0.00 0.00 72
20260505072035 15 75 0.0 0.0 0.00 0.00 0.00 71
20260505071530 15 75 0.0 0.0 0.00 0.00 0.00 72
20260505071029 15 75 0.0 0.0 0.00 0.00 0.00 69
20260505070526 16 75 0.0 0.0 0.00 0.00 0.00 69
20260505070021 16 75 0.0 0.0 0.00 0.00 0.00 69
20260505065518 15 75 0.0 0.0 0.00 0.00 0.00 70
20260505065014 16 74 0.0 0.0 0.00 0.00 0.00 69
20260505064511 16 75 0.0 0.0 0.00 0.00 0.00 68
20260505064010 16 75 0.0 0.0 0.00 0.00 0.00 67
20260505063507 16 75 0.0 0.0 0.00 0.00 0.00 68
20260505063002 16 75 0.0 0.0 0.00 0.00 0.00 66
20260505062459 16 75 0.0 1.6 0.00 0.00 0.00 65
20260505061956 17 74 0.0 1.6 0.00 0.00 0.00 64
20260505061454 17 80 0.0 1.6 0.00 0.00 0.00 64
20260505060951 17 95 0.0 0.0 0.00 0.00 0.00 64
20260505060449 16 74 0.0 0.0 0.00 0.00 0.00 65
20260505055945 16 74 0.0 0.0 0.00 0.00 0.00 66
20260505055441 16 74 0.0 0.0 0.00 0.00 0.00 65
20260505054938 16 74 0.0 0.0 0.00 0.00 0.00 65
20260505054435 16 74 0.0 0.0 0.00 0.00 0.00 65
20260505053933 16 74 0.0 0.0 0.00 0.00 0.00 65
20260505053430 16 74 0.0 0.0 0.00 0.00 0.00 65
20260505052927 16 74 0.0 0.0 0.00 0.00 0.00 64
20260505052424 16 74 0.0 0.0 0.00 0.00 0.00 64
20260505051921 16 74 0.0 0.0 0.00 0.00 0.00 65
20260505051418 16 74 0.0 0.0 0.00 0.00 0.00 65
20260505050916 16 74 0.0 0.0 0.00 0.00 0.00 64
20260505050414 17 74 0.0 0.0 0.00 0.00 0.00 64
20260505041341 17 74 0.0 0.0 0.00 0.00 0.00 61
20260505040839 16 74 0.0 0.0 0.00 0.00 0.00 63
20260505040336 16 74 0.0 0.0 0.00 0.00 0.00 63
20260505035833 16 74 0.0 1.6 0.00 0.00 0.00 61
20260505035328 16 74 0.0 1.6 0.00 0.00 0.00 61
20260505034826 16 77 0.0 1.6 0.00 0.00 0.00 61
20260505034322 16 76 0.0 0.0 0.00 0.00 0.00 62
20260505033820 16 76 0.0 1.6 0.00 0.00 0.00 62
20260505033316 16 78 0.0 3.2 0.00 0.00 0.00 61
20260505032815 15 74 0.0 0.0 0.00 0.00 0.00 63
20260505032311 15 74 0.0 0.0 0.00 0.00 0.00 62
20260505031808 16 74 0.0 0.0 0.00 0.00 0.00 61
20260505031304 16 74 0.0 0.0 0.00 0.00 0.00 60
20260505030802 16 74 0.0 0.0 0.00 0.00 0.00 59
20260505030258 16 74 0.0 0.0 0.00 0.00 0.00 60
20260505025753 16 74 0.0 0.0 0.00 0.00 0.00 60
20260505025251 16 74 0.0 0.0 0.00 0.00 0.00 59
20260505024749 16 74 0.0 0.0 0.00 0.00 0.00 60
20260505024246 17 74 0.0 0.0 0.00 0.00 0.00 60
20260505023744 17 74 0.0 0.0 0.00 0.00 0.00 60
20260505023241 17 75 0.0 1.6 0.00 0.00 0.00 54
20260505022738 17 75 1.6 1.6 0.00 0.00 0.00 55
20260505022235 17 61 0.0 0.0 0.00 0.00 0.00 55
20260505021731 17 61 0.0 0.0 0.00 0.00 0.00 57
20260505021229 18 61 0.0 1.6 0.00 0.00 0.00 56
20260505020724 18 77 0.0 1.6 0.00 0.00 0.00 55
20260505020219 18 78 0.0 0.0 0.00 0.00 0.00 52
20260505015717 18 78 0.0 1.6 0.00 0.00 0.00 50
20260505015214 17 73 0.0 1.6 0.00 0.00 0.00 53
20260505014711 17 72 0.0 0.0 0.00 0.00 0.00 54
20260505014209 17 72 0.0 0.0 0.00 0.00 0.00 55
20260505013705 17 72 0.0 0.0 0.00 0.00 0.00 56
20260505013202 18 72 0.0 0.0 0.00 0.00 0.00 53
20260505012700 18 73 0.0 0.0 0.00 0.00 0.00 52
20260505012157 18 73 0.0 0.0 0.00 0.00 0.00 52
20260505011653 18 73 0.0 0.0 0.00 0.00 0.00 51
20260505011150 18 73 0.0 0.0 0.00 0.00 0.00 51
20260505010645 18 73 0.0 0.0 0.00 0.00 0.00 51
20260505010143 18 82 1.6 3.2 0.00 0.00 0.00 51
20260505005638 18 66 0.0 0.0 0.00 0.00 0.00 52
20260505005136 18 66 0.0 0.0 0.00 0.00 0.00 51
20260505004633 19 66 0.0 0.0 0.00 0.00 0.00 50
20260505004129 20 78 0.0 0.0 0.00 0.00 0.00 48
20260505003627 20 84 1.6 3.2 0.00 0.00 0.00 46
20260505003124 20 72 0.0 0.0 0.00 0.00 0.00 46
20260505002620 20 72 0.0 0.0 0.00 0.00 0.00 46
20260505002118 20 78 0.0 4.8 0.00 0.00 0.00 44
20260505001615 20 70 0.0 0.0 0.00 0.00 0.00 45
20260505001113 20 75 0.0 0.0 0.00 0.00 0.00 44
20260505000610 21 65 0.0 0.0 0.00 0.00 0.00 45
20260505000108 21 93 1.6 3.2 0.00 0.00 0.00 42
20260504235604 21 70 0.0 1.6 0.00 0.00 0.00 43
20260504235100 21 109 3.2 3.2 0.00 0.00 0.00 42
20260504234557 21 68 0.0 1.6 0.00 0.00 0.00 42
20260504234055 21 69 1.6 1.6 0.00 0.00 0.00 42
20260504233550 21 135 4.8 8.0 0.00 0.00 0.00 41
20260504233047 21 73 0.0 1.6 0.00 0.00 0.00 42
20260504232544 21 70 1.6 8.0 0.00 0.00 0.00 41
20260504232042 21 82 3.2 3.2 0.00 0.00 0.00 41
20260504231538 22 196 1.6 4.8 0.00 0.00 0.00 40
20260504231034 22 97 3.2 3.2 0.00 0.00 0.00 41
20260504230530 22 73 1.6 3.2 0.00 0.00 0.00 40
20260504230029 22 71 0.0 9.7 0.00 0.00 0.00 42
20260504225526 22 81 1.6 12.9 0.00 0.00 0.00 40
20260504225023 22 95 9.7 16.1 0.00 0.00 0.00 40
20260504224520 22 85 4.8 11.3 0.00 0.00 0.00 41
20260504224017 22 63 1.6 20.9 0.00 0.00 0.00 40
20260504223513 22 59 0.0 8.0 0.00 0.00 0.00 41
20260504223009 22 189 3.2 9.7 0.00 0.00 0.00 40
20260504222506 22 68 3.2 4.8 0.00 0.00 0.00 40
20260504222004 22 83 3.2 8.0 0.00 0.00 0.00 41
20260504221501 22 39 1.6 4.8 0.00 0.00 0.00 43
20260504220958 22 15 1.6 11.3 0.00 0.00 0.00 40
20260504220454 22 62 1.6 9.7 0.00 0.00 0.00 39
20260504215951 22 63 1.6 8.0 0.00 0.00 0.00 39
20260504215448 22 50 1.6 4.8 0.00 0.00 0.00 40
20260504214944 22 111 9.7 12.9 0.00 0.00 0.00 39
20260504214441 22 109 3.2 3.2 0.00 0.00 0.00 39
20260504213938 22 55 1.6 4.8 0.00 0.00 0.00 39
20260504213433 22 176 6.4 9.7 0.00 0.00 0.00 39
20260504212931 22 175 6.4 9.7 0.00 0.00 0.00 39
20260504212427 22 89 3.2 4.8 0.00 0.00 0.00 39
20260504211925 22 201 6.4 11.3 0.00 0.00 0.00 39
20260504211421 22 92 3.2 9.7 0.00 0.00 0.00 39
20260504210918 22 166 6.4 9.7 0.00 0.00 0.00 39
20260504210415 23 55 1.6 1.6 0.00 0.00 0.00 41
20260504205912 22 58 0.0 4.8 0.00 0.00 0.00 40
20260504205410 22 92 0.0 12.9 0.00 0.00 0.00 39
20260504204908 22 56 0.0 8.0 0.00 0.00 0.00 38
20260504204406 22 192 4.8 11.3 0.00 0.00 0.00 38
20260504203905 22 67 6.4 9.7 0.00 0.00 0.00 39
20260504203402 22 42 3.2 4.8 0.00 0.00 0.00 39
20260504202858 22 67 1.6 4.8 0.00 0.00 0.00 38
20260504202355 22 9 1.6 14.5 0.00 0.00 0.00 40
20260504201851 22 140 8.0 11.3 0.00 0.00 0.00 38
20260504201349 22 113 4.8 4.8 0.00 0.00 0.00 38
20260504200846 23 53 0.0 1.6 0.00 0.00 0.00 39
20260504200343 23 73 1.6 4.8 0.00 0.00 0.00 38
20260504195839 23 45 1.6 1.6 0.00 0.00 0.00 37
20260504195334 22 57 0.0 3.2 0.00 0.00 0.00 38
20260504194832 22 71 0.0 1.6 0.00 0.00 0.00 37
20260504194328 22 204 3.2 8.0 0.00 0.00 0.00 39
20260504193824 22 57 0.0 1.6 0.00 0.00 0.00 39
20260504193321 23 33 3.2 3.2 0.00 0.00 0.00 40
20260504192820 22 50 0.0 1.6 0.00 0.00 0.00 39
20260504192318 22 82 0.0 4.8 0.00 0.00 0.00 40
20260504191816 22 113 1.6 4.8 0.00 0.00 0.00 40
20260504191313 22 81 0.0 3.2 0.00 0.00 0.00 40
20260504190808 22 45 1.6 3.2 0.00 0.00 0.00 40
20260504190305 22 38 3.2 3.2 0.00 0.00 0.00 39
20260504185801 22 78 1.6 12.9 0.00 0.00 0.00 40
20260504185258 22 54 1.6 12.9 0.00 0.00 0.00 39
20260504184754 22 52 0.0 12.9 0.00 0.00 0.00 39
20260504184250 22 105 1.6 3.2 0.00 0.00 0.00 38
20260504183746 22 72 1.6 4.8 0.00 0.00 0.00 39
20260504183243 22 173 6.4 9.7 0.00 0.00 0.00 40
20260504182741 22 149 6.4 8.0 0.00 0.00 0.00 40
20260504182238 22 94 3.2 8.0 0.00 0.00 0.00 41
20260504181736 22 124 6.4 11.3 0.00 0.00 0.00 38
20260504181233 22 56 0.0 0.0 0.00 0.00 0.00 41
20260504180732 22 145 6.4 9.7 0.00 0.00 0.00 38
20260504180231 22 135 4.8 8.0 0.00 0.00 0.00 38
20260504175728 21 45 1.6 4.8 0.00 0.00 0.00 40
20260504175224 22 177 4.8 8.0 0.00 0.00 0.00 39
20260504174723 21 51 1.6 4.8 0.00 0.00 0.00 38
20260504174220 21 91 4.8 9.7 0.00 0.00 0.00 40
20260504173716 22 40 3.2 4.8 0.00 0.00 0.00 37
20260504173213 21 67 0.0 4.8 0.00 0.00 0.00 40
20260504172710 22 36 1.6 4.8 0.00 0.00 0.00 39
20260504172206 22 53 0.0 3.2 0.00 0.00 0.00 39
20260504171703 21 68 0.0 3.2 0.00 0.00 0.00 44
20260504171200 22 31 3.2 9.7 0.00 0.00 0.00 39
20260504170656 21 77 4.8 9.7 0.00 0.00 0.00 38